Weather History for Bend, OR

Change the Weather History Date:

Sunday, November 4, 2012

  Actual Average (KRDM) Record (KRDM)
Temperature  
Mean Temperature 54 °F 41 °F  
Max Temperature 68 °F 54 °F 76 °F (1980)
Min Temperature 39 °F 28 °F 10 °F (1960)
Degree Days  
Heating Degree Days 12 24  
Month to date heating degree days 93  
Since 1 July heating degree days 1038  
Cooling Degree Days 0 0  
Month to date cooling degree days 0  
Year to date cooling degree days 222  
Growing Degree Days 4 (Base 50)    
Moisture  
Dew Point 37 °F    
Average Humidity 58    
Maximum Humidity 75    
Minimum Humidity 35    
Precipitation  
Precipitation 0.00 in 0.03 in 0.25 in (1990)
Month to date precipitation 0.12  
Year to date precipitation 6.90  
Sea Level Pressure  
Sea Level Pressure 30.34 in    
Wind  
Wind Speed 6 mph (South)    
Max Wind Speed 15 mph    
Max Gust Speed -    
Visibility 10 miles    
Events      
T = Trace of Precipitation, MM = Missing Value Source: NWS Daily Summary

Daily Weather History Graph

Daily Weather History Graph

Search for Another Location

Airport:

Trip Planner

Search our weather history database for the weather conditions in past years. The results will help you decide how hot, cold, wet, or windy it might be!

Date:

Astronomy

Nov. 04, 2012 Rise Set
Actual Time 6:46 AM PST 4:49 PM PST
Civil Twilight 6:15 AM PST 5:20 PM PST
Nautical Twilight 5:41 AM PST 5:54 PM PST
Astronomical Twilight 5:07 AM PST 6:28 PM PST
Moon 9:31 PM PST (11/4) 11:35 AM PST (11/4)
Length of Visible Light 11h 04m
Length of Day
10h 03m
Waning Gibbous, 71% of the Moon is Illuminated
Nov 4
Waning Gibbous
Nov 6
Last Quarter
Nov 13
New
Nov 20
First Quarter
Nov 28
Full

Hourly Weather History & Observations

Time (PST) Temp. Windchill Dew Point Humidity Pressure Visibility Wind Dir Wind Speed Gust Speed Precip Events Conditions
12:15 AM 51.8 °F - 35.6 °F 54% 30.23 in 10.0 mi SSW 15.0 mph - N/A   Clear
12:35 AM 51.8 °F - 35.6 °F 54% 30.23 in 10.0 mi SSW 13.8 mph - N/A   Clear
12:55 AM 50.0 °F - 35.6 °F 58% 30.24 in 10.0 mi SW 5.8 mph - N/A   Clear
1:15 AM 48.2 °F - 35.6 °F 62% 30.26 in 10.0 mi Calm Calm - N/A   Clear
1:35 AM 48.2 °F - 35.6 °F 62% 30.26 in 10.0 mi SSW 3.5 mph - N/A   Clear
1:55 AM 48.2 °F - 35.6 °F 62% 30.25 in 10.0 mi SW 5.8 mph - N/A   Clear
1:15 AM 48.2 °F - 35.6 °F 62% 30.25 in 10.0 mi SW 6.9 mph - N/A   Clear
1:35 AM 48.2 °F - 35.6 °F 62% 30.25 in 10.0 mi SW 5.8 mph - N/A   Clear
1:55 AM 46.4 °F 45.2 °F 35.6 °F 66% 30.26 in 10.0 mi SE 3.5 mph - N/A   Clear
2:15 AM 44.6 °F 43.1 °F 35.6 °F 71% 30.26 in 10.0 mi SE 3.5 mph - N/A   Clear
2:35 AM 44.6 °F 41.4 °F 35.6 °F 71% 30.26 in 10.0 mi SE 5.8 mph - N/A   Clear
2:55 AM 44.6 °F 41.4 °F 33.8 °F 66% 30.26 in 10.0 mi SSE 5.8 mph - N/A   Clear
3:15 AM 44.6 °F 43.1 °F 33.8 °F 66% 30.26 in 10.0 mi ESE 3.5 mph - N/A   Clear
3:35 AM 41.0 °F - 32.0 °F 70% 30.26 in 10.0 mi Calm Calm - N/A   Clear
3:55 AM 41.0 °F 38.0 °F 32.0 °F 70% 30.27 in 10.0 mi East 4.6 mph - N/A   Clear
4:15 AM 41.0 °F - 32.0 °F 70% 30.28 in 10.0 mi Calm Calm - N/A   Clear
4:55 AM 41.0 °F 37.1 °F 32.0 °F 70% 30.29 in 10.0 mi ESE 5.8 mph - N/A   Clear
5:15 AM 41.0 °F 39.0 °F 32.0 °F 70% 30.30 in 10.0 mi SSE 3.5 mph - N/A   Clear
5:35 AM 41.0 °F 39.0 °F 32.0 °F 70% 30.30 in 10.0 mi South 3.5 mph - N/A   Clear
5:55 AM 39.2 °F 35.9 °F 32.0 °F 75% 30.30 in 10.0 mi South 4.6 mph - N/A   Clear
6:15 AM 39.2 °F 35.0 °F 32.0 °F 75% 30.31 in 10.0 mi SE 5.8 mph - N/A   Clear
6:35 AM 39.2 °F 35.9 °F 32.0 °F 75% 30.31 in 10.0 mi SSE 4.6 mph - N/A   Clear
6:55 AM 39.2 °F 37.0 °F 32.0 °F 75% 30.32 in 10.0 mi SSE 3.5 mph - N/A   Clear
7:15 AM 39.2 °F 37.0 °F 32.0 °F 75% 30.33 in 10.0 mi SSE 3.5 mph - N/A   Clear
7:55 AM 44.6 °F 42.2 °F 32.0 °F 61% 30.35 in 10.0 mi SE 4.6 mph - N/A   Clear
8:15 AM 44.6 °F - 33.8 °F 66% 30.35 in 10.0 mi Calm Calm - N/A   Clear
8:35 AM 48.2 °F - 35.6 °F 62% 30.36 in 10.0 mi ESE 5.8 mph - N/A   Clear
8:55 AM 50.0 °F - 35.6 °F 58% 30.35 in 10.0 mi SE 4.6 mph - N/A   Clear
9:15 AM 51.8 °F - 37.4 °F 58% 30.36 in 10.0 mi ESE 5.8 mph - N/A   Clear
9:55 AM 55.4 °F - 39.2 °F 54% 30.36 in 10.0 mi SE 3.5 mph - N/A   Clear
10:15 AM 59.0 °F - 39.2 °F 48% 30.37 in 10.0 mi SSW 10.4 mph - N/A   Clear
10:55 AM 60.8 °F - 41.0 °F 48% 30.36 in 10.0 mi WSW 9.2 mph - N/A   Clear
11:15 AM 62.6 °F - 41.0 °F 45% 30.35 in 10.0 mi SW 11.5 mph - N/A   Clear
11:35 AM 62.6 °F - 41.0 °F 45% 30.35 in 10.0 mi SW 9.2 mph - N/A   Clear
11:55 AM 64.4 °F - 41.0 °F 42% 30.35 in 10.0 mi SSW 11.5 mph - N/A   Clear
12:15 PM 64.4 °F - 41.0 °F 42% 30.35 in 10.0 mi SW 11.5 mph - N/A   Clear
12:35 PM 64.4 °F - 41.0 °F 42% 30.34 in 10.0 mi SSW 10.4 mph - N/A   Clear
12:55 PM 64.4 °F - 39.2 °F 40% 30.34 in 10.0 mi SW 11.5 mph - N/A   Clear
1:15 PM 64.4 °F - 39.2 °F 40% 30.34 in 10.0 mi SW 10.4 mph - N/A   Clear
1:35 PM 66.2 °F - 39.2 °F 37% 30.34 in 10.0 mi SW 10.4 mph - N/A   Clear
1:55 PM 66.2 °F - 39.2 °F 37% 30.34 in 10.0 mi SW 6.9 mph - N/A   Clear
2:15 PM 66.2 °F - 39.2 °F 37% 30.34 in 10.0 mi WSW 6.9 mph - N/A   Clear
2:35 PM 66.2 °F - 39.2 °F 37% 30.35 in 10.0 mi Calm Calm - N/A   Clear
2:55 PM 66.2 °F - 39.2 °F 37% 30.35 in 10.0 mi WNW 6.9 mph - N/A   Clear
3:15 PM 68.0 °F - 39.2 °F 35% 30.36 in 10.0 mi NNW 9.2 mph - N/A   Clear
3:35 PM 66.2 °F - 39.2 °F 37% 30.37 in 10.0 mi North 6.9 mph - N/A   Clear
3:55 PM 66.2 °F - 37.4 °F 35% 30.37 in 10.0 mi NNW 6.9 mph - N/A   Clear
4:15 PM 64.4 °F - 37.4 °F 37% 30.37 in 10.0 mi North 5.8 mph - N/A   Clear
4:35 PM 64.4 °F - 37.4 °F 37% 30.37 in 10.0 mi Calm Calm - N/A   Clear
4:55 PM 60.8 °F - 37.4 °F 42% 30.37 in 10.0 mi Calm Calm - N/A   Clear
5:15 PM 57.2 °F - 37.4 °F 48% 30.38 in 10.0 mi Calm Calm - N/A   Clear
5:35 PM 55.4 °F - 37.4 °F 51% 30.38 in 8.0 mi Calm Calm - N/A   Clear
5:55 PM 53.6 °F - 39.2 °F 58% 30.38 in 8.0 mi Calm Calm - N/A   Clear
6:15 PM 50.0 °F - 37.4 °F 62% 30.39 in 10.0 mi Calm Calm - N/A   Clear
6:35 PM 50.0 °F - 39.2 °F 66% 30.38 in 10.0 mi Calm Calm - N/A   Clear
6:55 PM 50.0 °F - 39.2 °F 66% 30.39 in 10.0 mi South 5.8 mph - N/A   Clear
7:15 PM 50.0 °F - 39.2 °F 66% 30.39 in 10.0 mi SSW 3.5 mph - N/A   Clear
7:35 PM 50.0 °F - 39.2 °F 66% 30.39 in 10.0 mi SW 4.6 mph - N/A   Clear
7:55 PM 50.0 °F - 39.2 °F 66% 30.39 in 10.0 mi Calm Calm - N/A   Clear
8:15 PM 50.0 °F - 39.2 °F 66% 30.39 in 10.0 mi SSW 4.6 mph - N/A   Clear
8:35 PM 50.0 °F - 39.2 °F 66% 30.40 in 10.0 mi SSW 3.5 mph - N/A   Clear
8:55 PM 50.0 °F - 37.4 °F 62% 30.40 in 10.0 mi SSW 4.6 mph - N/A   Clear
9:15 PM 48.2 °F - 39.2 °F 71% 30.40 in 10.0 mi SW 5.8 mph - N/A   Clear
9:35 PM 48.2 °F - 37.4 °F 66% 30.40 in 10.0 mi SSW 5.8 mph - N/A   Clear
9:55 PM 48.2 °F - 37.4 °F 66% 30.40 in 10.0 mi South 5.8 mph - N/A   Clear
10:15 PM 48.2 °F - 37.4 °F 66% 30.40 in 10.0 mi SSW 4.6 mph - N/A   Clear
10:35 PM 48.2 °F - 37.4 °F 66% 30.40 in 10.0 mi SW 3.5 mph - N/A   Clear
10:55 PM 46.4 °F - 37.4 °F 71% 30.39 in 10.0 mi Calm Calm - N/A   Clear